Content
SEND FEEDBACK

Daily
Averages
Monthly
Summary
Spain

MÁLAGA, SPAIN


Home > Europe > Spain
Elevation: 23 feet     Latitude: 36 40N     Longitude: 004 29W

WEATHER
 
SELECT A DAY
Number of Records: 324,285;   Date Range: 7/1/96 - 9/30/14
 
SHARE

PRINT THIS DATA

[ ← Previous Day ]
WEATHER ALMANAC - FEBRUARY 9, 2013
[ Next Day → ]
[ °C ]   °F
Weather ElementAverageHighLow
Temperature53.2 °F62.6 °F (2:30 pm)48.2 °F (7:00 am)
Dewpoint30.2 °F42 °F (7:00 pm)23 °F (2:30 pm)
Humidity42 %67 % (7:30 pm)22 % (2:30 pm)
Barometer30.20 in30.27 in (8:00 pm)30.06 in (12:30 am)
Wind Speed10.3 mph18.4 mph (9:00 am)
Wind Gust31.1 mph (9:00 am)
Weather ElementAverage
Visibility22 mi
Wind DirectionWSW (263.1 °)

Weather ElementTotal
Precipitation---
Heating Degree Days9.6 (Base 65)
Growing Degree Days5.4 (Base 50)
Averaged from 50 records on February 9, 2013
WEATHER CONDITIONS BREAKOUT
WIND DIRECTION BREAKOUT
WEATHER BY HOUR - FEBRUARY 9, 2013
[ °C ]   °F
Local TimeTemperatureDewpointHumidityBarometerVisibilityWind DirectionWind SpeedGust SpeedPrecipitationEventsConditions
12:30 AM51.8 °F33.8 °F50 %30.06 inWest (280°)11.5 mphClear
1:00 AM51.0 °F34.0 °F40 %30.10 in19.0 miWest (280°)10.4 mph
1:00 AM51.8 °F33.8 °F50 %30.09 inWest (280°)10.4 mphClear
1:30 AM50.0 °F33.8 °F54 %30.09 inWNW (290°)12.7 mphClear
2:00 AM50.0 °F33.8 °F54 %30.09 inWNW (300°)8.1 mphClear
2:30 AM51.8 °F32.0 °F47 %30.09 inNW (310°)11.5 mphClear
3:00 AM51.8 °F32.0 °F47 %30.09 inNW (310°)11.5 mphClear
3:30 AM51.8 °F32.0 °F47 %30.12 inWNW (290°)12.7 mphClear
4:00 AM51.8 °F30.2 °F44 %30.12 inWNW (300°)11.5 mphClear
4:30 AM51.8 °F26.6 °F38 %30.09 inWNW (290°)12.7 mph25.3 mphClear
5:00 AM50.0 °F26.6 °F40 %30.12 inWNW (290°)9.2 mphClear
5:30 AM50.0 °F26.6 °F40 %30.12 inWNW (290°)15.0 mphClear
6:00 AM50.0 °F28.4 °F43 %30.12 inWNW (290°)15.0 mphClear
6:30 AM50.0 °F26.6 °F40 %30.15 inWNW (300°)15.0 mphClear
7:00 AM50.0 °F26.0 °F26 %30.17 in19.0 miNW (320°)15.0 mph
7:00 AM48.2 °F26.6 °F43 %30.15 inNW (320°)13.8 mphClear
7:30 AM50.0 °F24.8 °F37 %30.15 inNW (320°)15.0 mphClear
8:00 AM48.2 °F26.6 °F43 %30.18 inNW (320°)13.8 mphClear
8:30 AM48.2 °F24.8 °F40 %30.18 inNW (310°)17.3 mphClear
9:00 AM48.2 °F24.8 °F40 %30.18 inNW (310°)18.4 mph31.1 mphClear
9:30 AM50.0 °F24.8 °F37 %30.21 inWNW (300°)17.3 mphClear
10:00 AM51.8 °F24.8 °F35 %30.21 inNW (310°)12.7 mphClear
10:30 AM53.6 °F24.8 °F33 %30.24 inNW (310°)11.5 mphClear
11:00 AM55.4 °F24.8 °F31 %30.24 inNW (310°)11.5 mphClear
11:30 AM57.2 °F24.8 °F29 %30.24 inNW (310°)10.4 mphClear
12:00 PM57.2 °F24.8 °F29 %30.24 inWest (280°)13.8 mphClear
12:30 PM59.0 °F24.8 °F27 %30.24 inWNW (290°)12.7 mphClear
1:00 PM60.0 °F34.0 °F26 %30.26 in25.0 miWest (270°)11.5 mphClear
1:00 PM59.0 °F24.8 °F27 %30.24 inWest (270°)11.5 mphClear
1:30 PM59.0 °F24.8 °F27 %30.24 inWSW (250°)12.7 mphClear
2:00 PM60.8 °F24.8 °F25 %30.24 inWSW (250°)8.1 mphClear
2:30 PM62.6 °F23.0 °F22 %30.24 inWSW (250°)4.6 mphClear
3:00 PM62.6 °F24.8 °F24 %30.21 inWSW (250°)3.5 mphClear
3:30 PM60.8 °F24.8 °F25 %30.21 inSouth (180°)4.6 mphClear
4:00 PM59.0 °F35.6 °F42 %30.21 inSSE (150°)10.4 mphClear
4:30 PM59.0 °F37.4 °F45 %30.21 inSSE (150°)9.2 mphClear
5:30 PM57.2 °F39.2 °F51 %30.24 inSSE (150°)8.1 mphClear
6:00 PM57.2 °F39.2 °F51 %30.24 inSSE (150°)6.9 mphClear
6:30 PM55.4 °F41.0 °F58 %30.24 inSSE (150°)5.8 mphClear
7:00 PM55.0 °F42.0 °F52 %30.26 in25.0 mi°2.3 mph
7:00 PM53.6 °F41.0 °F62 %30.24 inVariable2.3 mphClear
7:30 PM51.8 °F41.0 °F67 %30.24 inCalmClear
8:00 PM50.0 °F39.2 °F66 %30.27 inWest (280°)4.6 mphClear
8:30 PM48.2 °F33.8 °F58 %30.27 inWest (280°)4.6 mphClear
9:00 PM48.2 °F32.0 °F54 %30.27 inWNW (290°)6.9 mphClear
9:30 PM50.0 °F30.2 °F47 %30.27 inWNW (290°)11.5 mphClear
10:00 PM51.8 °F30.2 °F44 %30.27 inWest (280°)8.1 mphClear
10:30 PM50.0 °F30.2 °F47 %30.27 inWNW (300°)6.9 mphClear
11:00 PM50.0 °F30.2 °F47 %30.27 inWNW (300°)9.2 mphClear
11:30 PM50.0 °F30.2 °F47 %30.27 inWNW (290°)11.5 mphClear
Hourly data recorded from LEMG, located miles away from Málaga, Spain







STORIES FROM OUR PARTNERS